[TLELIST] Archives

 

[list_settings.list_name] Current TLEs

February 24th 2014 PST

HST 1 20580U 90037B 14054.48541250 .00003772 00000-0 24925-3 0 4446 2 20580 028.4710 064.2673 0003289 148.1408 344.2675 15.04733540107578 ISS (ZARYA) 1 25544U 98067A 14055.31826514 .00016196 00000-0 28423-3 0 7448 2 25544 051.6506 299.1076 0003848 168.2926 300.8990 15.50683911873811 CXO 1 25867U 99040B 14056.81918468 .00000542 00000-0 00000+0 0 9968 2 25867 076.6129 325.7610 8270553 275.4323 000.3375 00.37804087 11491 ____________________________________________________________________ These 2-Line ...Continue Reading

[list_settings.list_name] Current TLEs

February 23rd 2014 PST

HST 1 20580U 90037B 14053.21440631 .00004128 00000-0 27402-3 0 4435 2 20580 028.4709 072.6128 0003348 135.0039 298.7421 15.04724429107371 ISS (ZARYA) 1 25544U 98067A 14054.53701020 .00017526 00000-0 30709-3 0 7375 2 25544 051.6501 302.9821 0004036 166.7357 258.3052 15.50663878873690 CXO 1 25867U 99040B 14056.81918468 .00000542 00000-0 00000+0 0 9968 2 25867 076.6129 325.7610 8270553 275.4323 000.3375 00.37804087 11491 ____________________________________________________________________ These 2-Line ...Continue Reading

[list_settings.list_name] Current TLEs

February 22nd 2014 PST

HST 1 20580U 90037B 14053.21440631 .00004128 00000-0 27402-3 0 4435 2 20580 028.4709 072.6128 0003348 135.0039 298.7421 15.04724429107371 ISS (ZARYA) 1 25544U 98067A 14053.39296556 .00018702 00000-0 32754-3 0 7303 2 25544 051.6507 308.6528 0003797 164.3026 350.1116 15.50627395873510 CXO 1 25867U 99040B 14054.17435074 .00000504 00000-0 00000+0 0 9959 2 25867 076.6053 325.8919 8273988 275.4301 000.4301 00.37801772 11488 ____________________________________________________________________ These 2-Line ...Continue Reading

[list_settings.list_name] Current TLEs

February 21st 2014 PST

HST 1 20580U 90037B 14051.49791012 .00003190 00000-0 20907-3 0 4425 2 20580 028.4707 083.8817 0003428 117.8531 359.3045 15.04712062107121 ISS (ZARYA) 1 25544U 98067A 14052.35340400 .00019101 00000-0 33479-3 0 7248 2 25544 051.6507 313.8062 0003872 160.9375 306.6246 15.50589621873355 CXO 1 25867U 99040B 14054.17435074 .00000504 00000-0 00000+0 0 9959 2 25867 076.6053 325.8919 8273988 275.4301 000.4301 00.37801772 11488 ____________________________________________________________________ These 2-Line ...Continue Reading

[list_settings.list_name] Current TLEs

February 20th 2014 PST

HST 1 20580U 90037B 14050.15993447 .00002881 00000-0 18770-3 0 4413 2 20580 028.4705 092.6669 0003482 104.9172 310.1963 15.04702927106919 ISS (ZARYA) 1 25544U 98067A 14051.26289138 .00019549 00000-0 34292-3 0 7179 2 25544 051.6514 319.2115 0004038 157.6797 338.5770 15.50548981873189 CXO 1 25867U 99040B 14051.53088452 .00000425 00000-0 00000+0 0 9941 2 25867 076.5997 326.0121 8276823 275.4364 000.6897 00.37803658 11478 ____________________________________________________________________ These 2-Line ...Continue Reading

[list_settings.list_name] Current TLEs

February 19th 2014 PST

HST 1 20580U 90037B 14050.15993447 .00002881 00000-0 18770-3 0 4413 2 20580 028.4705 092.6669 0003482 104.9172 310.1963 15.04702927106919 ISS (ZARYA) 1 25544U 98067A 14050.35449225 .00019553 00000-0 34342-3 0 7129 2 25544 051.6514 323.7161 0004100 154.9129 307.3936 15.50513004873040 CXO 1 25867U 99040B 14051.53088452 .00000425 00000-0 00000+0 0 9941 2 25867 076.5997 326.0121 8276823 275.4364 000.6897 00.37803658 11478 ____________________________________________________________________ These 2-Line ...Continue Reading

[list_settings.list_name] Current TLEs

February 18th 2014 PST

TBA - TO BE ASSIGNED 1 20580U 90037B 14048.58661343 .00002824 00000-0 18385-3 0 4402 2 20580 028.4703 102.9979 0003450 088.2176 067.5376 15.04693274106688 TBA - TO BE ASSIGNED 1 25544U 98067A 14049.46136253 .00018080 00000-0 31862-3 0 7042 2 25544 051.6504 328.1462 0004142 152.1742 001.5846 15.50475728872906 TBA - TO BE ASSIGNED 1 25867U 99040B 14051.53088452 .00000425 00000-0 00000+0 0 9941 2 25867 076.5997 326.0121 8276823 275.4364 000.6897 00.37803658 11478 ________________________________________ ...Continue Reading

[list_settings.list_name] Current TLEs

February 17th 2014 PST

HST 1 20580U 90037B 14047.52097051 .00003270 00000-0 21479-3 0 4396 2 20580 028.4703 109.9950 0003491 079.0665 052.8330 15.04687089106527 ISS (ZARYA) 1 25544U 98067A 14048.30071314 .00016235 00000-0 28752-3 0 6975 2 25544 051.6514 333.8978 0004217 148.2315 002.9156 15.50422922872724 CXO 1 25867U 99040B 14048.88536510 .00000425 00000-0 00000+0 0 9937 2 25867 076.5906 326.1616 8278421 275.4455 000.6297 00.37802547 11464 ____________________________________________________________________ These 2-Line ...Continue Reading

[list_settings.list_name] Current TLEs

February 16th 2014 PST

HST 1 20580U 90037B 14046.23644895 .00001614 00000-0 10000-3 0 4384 2 20580 028.4712 118.4389 0002999 076.6877 283.4094 15.04680036106320 ISS (ZARYA) 1 25544U 98067A 14047.27136873 .00015384 00000-0 27326-3 0 6905 2 25544 051.6519 338.9976 0004210 143.3071 018.7940 15.50385398872564 CXO 1 25867U 99040B 14048.88536510 .00000425 00000-0 00000+0 0 9937 2 25867 076.5906 326.1616 8278421 275.4455 000.6297 00.37802547 11464 ____________________________________________________________________ These 2-Line ...Continue Reading

[list_settings.list_name] Current TLEs

February 15th 2014 PST

HST 1 20580U 90037B 14046.23644895 .00001614 00000-0 10000-3 0 4384 2 20580 028.4712 118.4389 0002999 076.6877 283.4094 15.04680036106320 ISS (ZARYA) 1 25544U 98067A 14046.23902522 .00015674 00000-0 27855-3 0 6822 2 25544 051.6514 344.1142 0004143 138.4199 018.0317 15.50354152872402 CXO 1 25867U 99040B 14048.88645525 .00000425 00000-0 00000+0 0 9923 2 25867 076.5908 326.1627 8278166 275.4462 000.7793 00.37803762 11464 ____________________________________________________________________ These 2-Line ...Continue Reading
  • This mailing list is a public mailing list - anyone may join or leave, at any time.
  • This mailing list is announce-only.

International Space Station (ISS) / Hubble Space Telescope (HST) / Chandra X-Ray Observatory Orbital Data via EMAIL

Privacy Policy:

Private list